Lid_Strength_Index
-1 -1 -0 3 10 9 13 12 9 10 9 6 5 7 8 7 9 11 1 0 -0 0 -1 -1 -2 -1 -1 -2 -2 -2 -2 -2 -2 -2 -1 -1 -2 -1 -1 -1 -1 -1 -1 -1 -1 -1 -1 -1 -1
-0 1 2 5 11 14 14 10 10 8 7 5 5 6 7 9 5 4 3 0 -0 -0 -1 -1 -1 -2 -1 -1 -2 -2 -1 -1 -1 -1 -1 -1 -2 -1 -1 -1 -1 -1 -1 -1 -1 -1 -1 -1 -1
2 1 6 8 11 14 14 10 8 7 5 6 7 5 6 7 4 3 1 -0 -1 -0 -1 -1 -1 -2 -1 -1 -1 -1 -1 -1 -1 -1 -1 -1 -1 -1 -1 -1 -1 -1 -1 -1 -1 -1 -1 -1 -1
2 3 5 10 12 11 10 9 7 7 6 5 5 8 5 3 3 1 0 -0 -0 -0 -1 -1 -2 -1 -1 -1 -1 -1 -1 -1 -1 -1 -1 -1 -1 -1 -1 -1 -1 -1 -1 -1 -1 -1 -1 -1 -1
2 5 9 11 11 10 8 7 6 8 7 6 6 8 7 3 1 0 0 -0 0 -0 -1 -1 -2 -1 -1 -1 -1 -1 -1 -1 -1 -1 -1 -1 -1 -1 -1 -1 -1 -1 -1 -1 -1 -1 -1 -1 -1
6 6 11 13 11 9 8 6 6 7 7 6 7 7 6 2 2 1 0 0 -0 -0 -1 -1 -1 -1 -1 -1 -1 -1 -1 -1 -1 -1 -1 -1 -1 -1 -1 -1 -1 -1 -1 -1 -1 -1 -1 -1 -1
8 8 11 11 12 10 8 6 7 7 7 7 5 8 5 3 1 1 0 -0 -0 -1 -1 -1 -1 -1 -1 -1 -1 -1 -1 -1 -1 -1 -1 -1 -1 -2 -1 -1 -1 -1 -1 -1 -1 -1 -1 -1 -1
6 6 10 10 11 11 7 6 5 6 7 4 4 8 7 3 1 1 0 0 -0 -0 -0 -1 -1 -1 -1 -1 -1 -1 -1 -1 -1 -1 -1 -1 -1 -1 -1 -1 -1 -1 -1 -1 -1 -1 -1 -1 -1
4 8 11 10 11 10 6 7 5 4 5 5 4 4 3 2 1 1 2 1 1 0 -0 -1 -1 -1 -1 -1 -1 -1 -1 -1 -1 -1 -1 -1 -2 -1 -1 -1 -1 -1 -1 -1 -1 -1 -1 -1 -1
6 8 9 7 7 8 7 7 6 6 7 7 5 3 2 2 2 3 3 3 2 1 1 -0 -0 -1 -1 -1 -1 -1 -1 -1 -2 -2 -1 -2 -1 -2 -2 -1 -1 -1 -1 -1 -1 -1 -1 -1 -1
6 8 7 7 6 6 7 7 5 7 8 6 6 5 4 3 3 3 2 2 2 1 0 0 -0 -1 -1 -1 -1 -1 -1 -1 -1 -1 -1 -1 -1 -1 -2 -2 -2 -2 -1 -1 -1 -1 -1 -1 -1
7 6 6 6 6 6 7 6 7 6 6 4 4 4 3 4 3 3 3 2 2 1 1 -0 -0 -1 -1 -1 -1 -1 -1 -1 -1 -1 -1 -1 -2 -1 -1 -1 -2 -1 -2 -1 -2 -2 -2 -1 -1
7 6 6 5 5 6 5 7 7 7 5 4 3 3 4 3 3 2 2 2 1 2 1 0 -0 -1 -1 -1 -1 -1 -1 -1 -1 -1 -1 -2 -2 -1 -1 -1 -1 -1 -1 -1 -1 -1 -1 -1 -1
6 6 6 5 6 6 7 7 6 6 4 4 4 4 4 3 3 3 2 2 2 1 1 0 0 -0 -1 -1 -1 -1 -1 -1 -1 -1 -1 -2 -1 -2 -1 -1 -0 -1 -1 -1 -1 -1 -0 -0 -0
5 8 7 6 6 7 6 9 8 5 4 5 5 4 4 3 3 3 2 2 1 1 0 0 0 -0 -0 -1 -1 -1 -1 -1 -1 -1 -1 -2 -1 -1 -1 -1 -0 -0 -1 -1 -1 -1 -1 -0 -1
7 7 10 7 6 7 7 11 7 5 5 6 5 5 4 3 3 2 2 2 1 1 1 0 -0 -0 -0 -0 -1 -1 -1 -1 -1 -1 -1 -1 -1 -1 -1 -0 -0 -1 -1 -1 -0 -0 0 0 1
8 11 10 9 6 7 8 10 7 5 5 6 5 5 4 4 3 2 2 1 1 1 1 1 0 0 -0 -1 -1 -1 -1 -1 -1 -1 -1 -1 -1 -1 -1 -1 -1 -1 -1 -0 -0 -0 0 1 0
11 9 9 9 8 7 9 9 7 6 6 6 6 5 5 4 4 2 2 1 1 1 1 0 0 -0 -0 -0 -0 -0 -0 -1 -1 -1 -1 -1 -1 -1 -1 -1 -1 -1 -0 -0 -0 0 -0 0 0
8 9 9 7 7 8 9 8 8 7 6 6 6 6 5 4 3 2 2 1 1 1 1 1 1 0 0 1 1 1 1 0 -0 -1 -1 -1 -1 -1 -1 -1 -1 -1 -0 -1 -0 -0 0 1 -0
8 9 9 7 7 8 9 9 7 7 7 6 6 6 5 4 4 3 2 2 2 1 1 1 1 0 0 0 0 0 0 0 0 -1 -1 -1 -1 -1 -1 -1 -1 -1 -0 -0 -0 0 1 1 -0
9 9 9 9 9 8 9 9 9 7 7 6 5 5 4 4 4 3 3 2 2 2 1 1 1 0 0 -0 0 0 0 0 1 1 0 -1 -1 -1 -1 -1 -1 -1 -1 0 -0 -0 1 2 0
9 8 9 9 9 11 8 11 8 8 8 7 6 6 5 4 4 3 3 3 2 2 1 1 1 0 0 -0 0 1 1 2 1 1 -0 0 -1 -1 -1 -0 -0 -1 -0 -0 -0 -0 0 1 2
9 8 9 9 9 10 10 11 9 8 8 8 7 6 5 4 4 3 3 2 2 1 1 1 1 0 0 0 -0 1 1 1 1 0 1 0 -0 -1 -1 -1 -1 -0 -0 -0 -1 -0 -0 -0 1
8 9 10 8 9 12 10 10 9 9 8 7 6 6 5 4 4 3 2 2 2 1 1 1 1 1 0 0 0 1 1 1 1 1 1 1 0 -0 -1 -1 0 0 0 0 -1 -1 -0 -0 0
8 11 12 13 13 13 10 11 9 6 6 6 6 5 5 4 4 4 3 3 2 2 2 1 1 1 1 1 1 0 1 0 1 1 1 1 1 0 -0 -0 0 1 0 -1 -1 -1 -0 -0 0
8 9 12 14 13 12 11 12 9 6 5 5 5 5 4 4 4 4 3 3 3 2 2 2 2 1 1 1 1 0 0 0 1 0 1 1 0 0 0 1 1 1 0 -1 -1 -0 -0 -0 -0
8 10 10 12 13 12 10 10 7 6 6 6 6 5 5 5 4 4 3 3 3 2 2 2 2 1 1 1 1 0 0 0 1 0 -0 0 0 1 1 2 2 1 -1 -1 -1 -0 -0 -0 -0
7 7 11 11 14 14 12 11 9 7 7 6 6 6 5 4 4 4 3 3 3 2 2 1 1 1 1 1 1 1 0 0 0 1 1 1 1 2 2 3 1 -1 -1 -1 -1 -0 -1 -0 1
8 9 9 10 11 13 13 11 6 7 6 6 5 5 5 5 4 4 3 3 2 2 2 2 1 2 1 1 1 1 1 2 1 1 1 2 2 3 3 2 -1 -1 -0 -1 -0 -0 -0 1 2
8 8 8 10 11 11 12 11 7 6 5 5 5 5 4 4 4 4 3 3 3 3 2 2 2 2 1 1 1 1 2 2 3 2 2 2 3 3 3 0 -0 -0 -0 -1 -0 -0 0 2 3